Location: ????????
(55.6189°N, 38.3031°E)
Time: 06:20:49
(UTC+00:00)

Helios 1A Rocket - Pass Details

Date: 15 November 2019
Orbit: 563 x 588 km, 98.3° (Epoch: 13 December)

Event Time Altitude Azimuth Distance (km) Brightness Sun altitude
Rises 03:34:07 0° 14° (NNE) 2,824 6.4 -12.0°
Reaches altitude 10° 03:36:18 10° 12° (NNE) 1,915 5.5 -11.7°
Maximum altitude 03:40:25 69° 290° (WNW) 628 2.9 -11.1°
Drops below altitude 10° 03:44:29 10° 207° (SSW) 1,886 5.4 -10.5°
Sets 03:46:37 0° 205° (SSW) 2,775 6.3 -10.3°
